EW0943 Weather Reports


time (UTC)temp
F
wind
direction
speed
knots
gust
knots
rain 1hr
in
rain 24hr
in
rain mn
in
humidity
%
barometer
mb
20260906145451 74 70 2.6 4.3 0.00 0.00 0.00 49 1020.9
20260906144937 74 94 1.7 4.3 0.00 0.00 0.00 49 1020.9
20260906144437 74 121 3.5 6.1 0.00 0.00 0.00 50 1021.0
20260906143951 73 115 0.9 6.1 0.00 0.00 0.00 50 1020.9
20260906143437 73 68 3.5 5.2 0.00 0.00 0.00 48 1020.9
20260906142936 73 131 1.7 6.1 0.00 0.00 0.00 46 1020.9
20260906142437 73 105 2.6 6.1 0.00 0.00 0.00 45 1020.9
20260906141951 73 94 0.9 6.1 0.00 0.00 0.00 40 1020.9
20260906141436 73 110 1.7 6.1 0.00 0.00 0.00 39 1021.0
20260906140936 73 117 4.3 5.2 0.00 0.00 0.00 32 1020.8
20260906135951 71 86 2.6 5.2 0.00 0.00 0.00 7 1020.7
20260906135436 68 100 1.7 3.5 0.00 0.00 0.00 100 1020.5
20260906134935 67 43 0.9 2.6 0.00 0.00 0.00 100 1020.6
20260906134435 66 71 1.7 2.6 0.00 0.00 0.00 100 1020.7
20260906133935 66 88 0.9 2.6 0.00 0.00 0.00 100 1020.6
20260906133436 67 48 1.7 2.6 0.00 0.00 0.00 100 1020.6
20260906132936 67 64 1.7 1.7 0.00 0.00 0.00 100 1020.5
20260906132436 67 80 0.0 1.7 0.00 0.00 0.00 100 1020.5
20260906131936 66 64 1.7 1.7 0.00 0.00 0.00 100 1020.5
20260906131436 65 75 0.0 0.9 0.00 0.00 0.00 100 1020.4
20260906130936 65 36 0.9 0.9 0.00 0.00 0.00 100 1020.4
20260906130436 65 16 0.0 0.0 0.00 0.00 0.00 100 1020.5
20260906125935 64 16 0.0 0.0 0.00 0.00 0.00 100 1020.2
20260906125436 64 16 0.0 0.0 0.00 0.00 0.00 100 1020.3
20260906124936 64 16 0.0 0.0 0.00 0.00 0.00 100 1020.2
20260906124435 64 13 0.0 0.0 0.00 0.00 0.00 100 1020.1
20260906123936 65 332 0.0 0.0 0.00 0.00 0.00 100 1020.0
20260906123436 62 309 0.0 0.0 0.00 0.00 0.00 100 1019.7
20260906122936 62 309 0.0 0.0 0.00 0.00 0.00 100 1019.7
20260906122436 62 309 0.0 0.0 0.00 0.00 0.00 100 1019.7
20260906121935 62 309 0.0 0.0 0.00 0.00 0.00 100 1019.6
20260906121436 62 309 0.0 0.0 0.00 0.00 0.00 100 1019.7
20260906120936 62 309 0.0 0.0 0.00 0.00 0.00 100 1019.5
20260906120451 62 309 0.0 0.0 0.00 0.00 0.00 100 1019.5
20260906115935 62 309 0.0 0.0 0.00 0.00 0.00 100 1019.4
20260906115435 62 309 0.0 0.0 0.00 0.00 0.00 100 1019.4
20260906114936 62 309 0.0 0.0 0.00 0.00 0.00 100 1019.4
20260906114436 62 309 0.0 0.0 0.00 0.00 0.00 100 1019.3
20260906113935 62 309 0.0 0.0 0.00 0.00 0.00 100 1019.4
20260906113436 62 309 0.0 0.0 0.00 0.00 0.00 100 1019.3
20260906112935 62 309 0.0 0.0 0.00 0.00 0.00 100 1019.1
20260906112436 62 309 0.0 0.0 0.00 0.00 0.00 100 1018.9
20260906111935 62 309 0.0 0.0 0.00 0.00 0.00 100 1019.0
20260906111436 62 309 0.0 0.0 0.00 0.00 0.00 100 1019.0
20260906110936 62 309 0.0 0.0 0.00 0.00 0.00 100 1018.9
20260906110435 62 309 0.0 0.0 0.00 0.00 0.00 100 1018.7
20260906105935 62 309 0.0 0.0 0.00 0.00 0.00 100 1018.8
20260906105436 62 309 0.0 0.0 0.00 0.00 0.00 100 1018.9
20260906104935 62 309 0.0 0.0 0.00 0.00 0.00 100 1018.9
20260906104451 62 309 0.0 0.0 0.00 0.00 0.00 100 1018.9
20260906103935 62 309 0.0 0.0 0.00 0.00 0.00 100 1018.9
20260906103435 62 309 0.0 0.0 0.00 0.00 0.00 100 1018.9
20260906102935 62 309 0.0 0.0 0.00 0.00 0.00 100 1019.1
20260906102505 62 309 0.0 0.0 0.00 0.00 0.00 100 1019.0
20260906101935 62 309 0.0 0.0 0.00 0.00 0.00 100 1019.0
20260906101435 62 309 0.0 0.0 0.00 0.00 0.00 100 1018.9
20260906100935 62 309 0.0 0.0 0.00 0.00 0.00 100 1018.9
20260906100435 62 309 0.0 0.0 0.00 0.00 0.00 100 1019.0
20260906100020 62 309 0.0 0.0 0.00 0.00 0.00 100 1018.9
20260906095435 62 309 0.0 0.0 0.00 0.00 0.00 100 1018.9
20260906094935 62 309 0.0 0.0 0.00 0.00 0.00 100 1018.8
20260906094436 62 309 0.0 0.0 0.00 0.00 0.00 100 1018.7
20260906093935 62 309 0.0 0.0 0.00 0.00 0.00 100 1018.7
20260906093435 62 309 0.0 0.0 0.00 0.00 0.00 100 1018.8
20260906092935 62 309 0.0 0.0 0.00 0.00 0.00 100 1018.8
20260906092450 62 309 0.0 0.0 0.00 0.00 0.00 100 1018.8
20260906091950 62 309 0.0 0.0 0.00 0.00 0.00 100 1018.7
20260906091435 62 309 0.0 0.0 0.00 0.00 0.00 100 1018.7
20260906090935 62 309 0.0 0.0 0.00 0.00 0.00 100 1018.8
20260906090435 62 309 0.0 0.0 0.00 0.00 0.00 100 1018.7
20260906085935 62 309 0.0 0.0 0.00 0.00 0.00 100 1018.7
20260906085451 62 309 0.0 0.0 0.00 0.00 0.00 100 1018.6
20260906084950 62 309 0.0 0.0 0.00 0.00 0.00 100 1018.6
20260906084436 62 309 0.0 0.0 0.00 0.00 0.00 100 1018.6
20260906083935 62 309 0.0 0.0 0.00 0.00 0.00 100 1018.7
20260906083436 62 309 0.0 0.0 0.00 0.00 0.00 100 1018.8
20260906082935 62 309 0.0 0.0 0.00 0.00 0.00 100 1018.7
20260906082435 62 309 0.0 0.0 0.00 0.00 0.00 100 1018.8
20260906081935 62 309 0.0 0.0 0.00 0.00 0.00 100 1018.7
20260906081435 62 309 0.0 0.0 0.00 0.00 0.00 100 1018.7
20260906081035 62 309 0.0 0.0 0.00 0.00 0.00 100 1018.7
20260906080435 62 309 0.0 0.0 0.00 0.00 0.00 100 1018.6
20260906075935 62 309 0.0 0.0 0.00 0.00 0.00 100 1018.6
20260906075435 62 330 0.0 0.0 0.00 0.00 0.00 100 1018.4
20260906074935 62 330 0.0 0.9 0.00 0.00 0.00 100 1018.4
20260906074435 62 330 0.0 0.9 0.00 0.00 0.00 100 1018.4
20260906073935 62 307 0.0 0.9 0.00 0.00 0.00 100 1018.5
20260906073435 62 276 0.0 1.7 0.00 0.00 0.00 100 1018.5
20260906072935 62 269 0.0 1.7 0.00 0.00 0.00 100 1018.4
20260906072435 61 301 0.0 1.7 0.00 0.00 0.00 100 1018.3
20260906071935 61 271 0.0 0.9 0.00 0.00 0.00 100 1018.2
20260906071435 61 250 0.9 0.9 0.00 0.00 0.00 100 1018.1
20260906070950 60 250 0.0 0.9 0.00 0.00 0.00 100 1018.1
20260906070435 60 248 0.0 0.0 0.00 0.00 0.00 100 1018.1
20260906065935 60 248 0.0 0.0 0.00 0.00 0.00 100 1018.1
20260906065435 61 248 0.0 0.0 0.00 0.00 0.00 100 1018.2
20260906064935 61 248 0.0 0.9 0.00 0.00 0.00 100 1018.3
20260906064450 61 248 0.0 0.9 0.00 0.00 0.00 100 1018.3
20260906063935 62 248 0.0 0.9 0.00 0.00 0.00 100 1018.3
20260906063435 62 248 0.0 0.9 0.00 0.00 0.00 100 1018.3
20260906062935 62 261 0.0 0.9 0.00 0.00 0.00 100 1018.4
20260906062435 62 274 0.0 0.9 0.00 0.00 0.00 100 1018.3
20260906062020 61 276 0.0 0.9 0.00 0.00 0.00 100 1018.3
20260906061435 61 276 0.0 0.0 0.00 0.00 0.00 100 1018.3
20260906060935 61 275 0.0 0.9 0.00 0.00 0.00 100 1018.2
20260906060435 61 276 0.0 0.9 0.00 0.00 0.00 100 1018.3
20260906060005 61 276 0.0 0.9 0.00 0.00 0.00 100 1018.1
20260906055435 60 317 0.0 0.9 0.00 0.00 0.00 100 1018.1
20260906054950 60 335 0.0 0.0 0.00 0.00 0.00 100 1018.1
20260906054435 60 335 0.0 0.0 0.00 0.00 0.00 100 1017.9
20260906053935 60 334 0.0 0.0 0.00 0.00 0.00 100 1017.9
20260906053435 60 334 0.0 0.0 0.00 0.00 0.00 100 1018.0
20260906052935 60 334 0.0 0.0 0.00 0.00 0.00 100 1018.0
20260906052450 61 335 0.0 0.0 0.00 0.00 0.00 100 1017.9
20260906051935 61 335 0.0 0.0 0.00 0.00 0.00 100 1017.9
20260906051435 61 335 0.0 0.0 0.00 0.00 0.00 100 1018.0
20260906050935 60 335 0.0 0.0 0.00 0.00 0.00 100 1018.0
20260906050435 61 335 0.0 0.9 0.00 0.00 0.00 100 1018.0
20260906045935 61 334 0.0 0.9 0.00 0.00 0.00 100 1017.9
20260906045435 60 325 0.0 0.9 0.00 0.00 0.00 100 1017.9
20260906044950 60 328 0.9 0.9 0.00 0.00 0.00 100 1017.9
20260906044435 60 327 0.0 0.0 0.00 0.00 0.00 100 1017.9
20260906043935 60 329 0.0 0.0 0.00 0.00 0.00 100 1017.9
20260906043450 60 327 0.0 0.0 0.00 0.00 0.00 100 1017.9
20260906042935 60 329 0.0 0.0 0.00 0.00 0.00 100 1017.8
20260906042435 60 328 0.0 0.0 0.00 0.00 0.00 100 1017.8
20260906041935 60 328 0.0 0.9 0.00 0.00 0.00 100 1017.7
20260906041435 59 328 0.0 0.9 0.00 0.00 0.00 100 1017.8
20260906040935 59 44 0.0 0.0 0.00 0.00 0.00 100 1017.8
20260906040435 59 44 0.0 0.0 0.00 0.00 0.00 100 1017.7
20260906035935 59 44 0.0 0.0 0.00 0.00 0.00 100 1017.7
20260906035435 59 44 0.0 0.0 0.00 0.00 0.00 100 1017.6
20260906034950 59 44 0.0 0.0 0.00 0.00 0.00 100 1017.5
20260906034435 59 44 0.0 0.0 0.00 0.00 0.00 100 1017.4
20260906033935 60 44 0.0 0.9 0.00 0.00 0.00 100 1017.5
20260906033435 60 44 0.0 0.9 0.00 0.00 0.00 100 1017.5
20260906033005 60 44 0.0 0.0 0.00 0.00 0.00 100 1017.4
20260906032435 60 44 0.0 0.9 0.00 0.00 0.00 100 1017.5
20260906031935 60 44 0.0 0.9 0.00 0.00 0.00 100 1017.4
20260906031450 61 44 0.0 1.7 0.00 0.00 0.00 100 1017.6
20260906030935 61 44 0.0 1.7 0.00 0.00 0.00 100 1017.5
20260906030435 61 47 0.9 1.7 0.00 0.00 0.00 100 1017.6
20260906025935 61 47 0.0 3.5 0.00 0.00 0.00 100 1017.6
20260906025435 61 46 1.7 3.5 0.00 0.00 0.00 100 1017.6
20260906024935 61 30 1.7 3.5 0.00 0.00 0.00 100 1017.5
20260906024435 61 40 1.7 1.7 0.00 0.00 0.00 100 1017.5
20260906023935 62 42 0.9 0.9 0.00 0.00 0.00 100 1017.6
20260906023450 62 42 0.9 0.9 0.00 0.00 0.00 100 1017.7
20260906022935 62 43 0.0 1.7 0.00 0.00 0.00 100 1017.6
20260906022435 62 42 0.9 1.7 0.00 0.00 0.00 100 1017.5
20260906021935 62 68 0.9 2.6 0.00 0.00 0.00 100 1017.4
20260906021434 62 65 0.9 4.3 0.00 0.00 0.00 100 1017.4
20260906020935 62 51 1.7 4.3 0.00 0.00 0.00 100 1017.4
20260906020435 62 57 2.6 2.6 0.00 0.00 0.00 100 1017.5
20260906015935 62 36 1.7 2.6 0.00 0.00 0.00 100 1017.4
20260906015435 62 78 0.0 0.9 0.00 0.00 0.00 100 1017.2
20260906014950 62 78 0.0 0.0 0.00 0.00 0.00 100 1017.2
20260906014435 62 78 0.0 0.9 0.00 0.00 0.00 100 1017.1
20260906013935 62 77 0.0 0.9 0.00 0.00 0.00 100 1017.1
20260906013435 62 78 0.0 0.9 0.00 0.00 0.00 100 1016.9
20260906012935 62 78 0.0 0.9 0.00 0.00 0.00 100 1016.9
20260906012435 63 71 0.0 0.9 0.00 0.00 0.00 100 1017.0
20260906011935 63 71 0.0 0.0 0.00 0.00 0.00 100 1016.9
20260906011435 63 71 0.0 0.0 0.00 0.00 0.00 100 1017.1
20260906010935 63 71 0.0 0.0 0.00 0.00 0.00 100 1017.1
20260906010435 63 71 0.0 0.0 0.00 0.00 0.00 100 1017.0
20260906005950 64 71 0.0 0.9 0.00 0.00 0.00 100 1016.9
20260906005434 64 71 0.0 0.9 0.00 0.00 0.00 100 1017.0
20260906004935 64 71 0.0 1.7 0.00 0.00 0.00 100 1017.0
20260906004435 65 71 0.9 2.6 0.00 0.00 0.00 100 1017.1
20260906003935 65 65 1.7 2.6 0.00 0.00 0.00 100 1017.1
20260906003435 66 68 0.9 1.7 0.00 0.00 0.00 100 1017.1
20260906002934 66 50 0.9 2.6 0.00 0.00 0.00 100 1017.1
20260906002434 67 46 1.7 2.6 0.00 0.00 0.00 100 1017.2
20260906001934 68 65 0.9 1.7 0.00 0.00 0.00 100 1017.4
20260906001435 68 64 0.9 1.7 0.00 0.00 0.00 100 1017.3
20260906000935 68 64 0.0 1.7 0.00 0.00 0.00 100 1017.3
20260906000435 69 70 0.9 2.6 0.00 0.00 0.00 2 1017.4
20260906000020 69 66 1.7 2.6 0.00 0.00 0.00 5 1017.3
20260905235450 69 59 0.9 2.6 0.00 0.00 0.00 6 1017.4
20260905234934 69 40 2.6 3.5 0.00 0.00 0.00 6 1017.4
20260905234435 70 59 1.7 3.5 0.00 0.00 0.00 8 1017.3
20260905233935 69 34 2.6 3.5 0.00 0.00 0.00 7 1017.3
20260905233434 70 62 2.6 3.5 0.00 0.00 0.00 8 1017.4
20260905232949 69 46 0.9 2.6 0.00 0.00 0.00 6 1017.4
20260905232450 69 50 0.0 3.5 0.00 0.00 0.00 4 1017.2
20260905231935 70 71 0.9 5.2 0.00 0.00 0.00 7 1017.3
20260905231435 70 44 1.7 7.8 0.00 0.00 0.00 10 1017.2
20260905230934 70 53 3.5 7.8 0.00 0.00 0.00 12 1017.2
20260905230450 70 56 2.6 4.3 0.00 0.00 0.00 9 1017.2
20260905225934 70 60 1.7 6.1 0.00 0.00 0.00 8 1017.2
20260905225435 70 46 1.7 7.0 0.00 0.00 0.00 11 1017.3
20260905224935 70 45 3.5 7.0 0.00 0.00 0.00 5 1017.3
20260905224434 70 56 3.5 7.0 0.00 0.00 0.00 7 1017.1
20260905223935 70 49 2.6 7.0 0.00 0.00 0.00 4 1017.1
20260905223434 69 34 1.7 8.7 0.00 0.00 0.00 100 1016.9
20260905222935 69 53 3.5 9.6 0.00 0.00 0.00 1 1016.9
20260905222435 70 40 7.8 10.4 0.00 0.00 0.00 2 1016.8
20260905221934 70 46 9.6 10.4 0.00 0.00 0.00 1 1016.7
20260905221449 70 74 2.6 9.6 0.00 0.00 0.00 2 1016.7
20260905220935 70 41 5.2 9.6 0.00 0.00 0.00 4 1016.7
20260905220434 71 37 5.2 9.6 0.00 0.00 0.00 7 1016.8
20260905215935 71 53 7.0 9.6 0.00 0.00 0.00 5 1016.7
20260905215434 71 65 5.2 9.6 0.00 0.00 0.00 2 1016.6
20260905214934 71 49 5.2 9.6 0.00 0.00 0.00 100 1016.6
20260905214434 71 32 5.2 7.8 0.00 0.00 0.00 9 1016.7
20260905213935 71 48 7.8 10.4 0.00 0.00 0.00 6 1016.6
20260905213434 71 42 7.0 10.4 0.00 0.00 0.00 7 1016.6
20260905212934 71 38 9.6 9.6 0.00 0.00 0.00 100 1016.6
20260905212434 70 31 3.5 7.8 0.00 0.00 0.00 100 1016.7
20260905211935 70 51 5.2 8.7 0.00 0.00 0.00 100 1016.8
20260905211434 71 39 3.5 8.7 0.00 0.00 0.00 1 1016.9
20260905210935 71 27 4.3 7.8 0.00 0.00 0.00 4 1016.7
20260905210434 71 15 4.3 7.8 0.00 0.00 0.00 7 1016.8
20260905205935 71 25 5.2 7.0 0.00 0.00 0.00 4 1016.7
20260905205435 71 33 6.1 7.8 0.00 0.00 0.00 6 1016.9
20260905204934 71 42 4.3 8.7 0.00 0.00 0.00 4 1016.8
20260905204434 71 25 3.5 8.7 0.00 0.00 0.00 6 1016.8
20260905203934 72 22 7.0 7.8 0.00 0.00 0.00 5 1016.8
20260905203435 71 51 3.5 7.0 0.00 0.00 0.00 100 1016.6
20260905202934 71 31 3.5 7.8 0.00 0.00 0.00 100 1016.5
20260905202434 70 25 4.3 7.8 0.00 0.00 0.00 100 1016.5
20260905201935 71 30 7.8 7.8 0.00 0.00 0.00 100 1016.6
20260905201504 71 6 1.7 6.1 0.00 0.00 0.00 100 1016.6
20260905200935 70 44 3.5 6.1 0.00 0.00 0.00 100 1016.5
20260905200434 70 31 3.5 7.0 0.00 0.00 0.00 100 1016.5
20260905195935 69 34 4.3 7.8 0.00 0.00 0.00 100 1016.6
20260905195434 69 64 4.3 7.8 0.00 0.00 0.00 100 1016.6
20260905194934 69 55 5.2 7.8 0.00 0.00 0.00 100 1016.6
20260905194434 69 59 5.2 7.0 0.00 0.00 0.00 100 1016.6
20260905193934 68 13 4.3 7.8 0.00 0.00 0.00 100 1016.7
20260905193434 68 37 2.6 7.8 0.00 0.00 0.00 100 1016.8
20260905192934 68 41 4.3 10.4 0.00 0.00 0.00 100 1016.7
20260905192434 68 40 7.0 10.4 0.00 0.00 0.00 100 1016.8
20260905191934 68 32 6.1 8.7 0.00 0.00 0.00 100 1016.7
20260905191434 69 43 3.5 7.8 0.00 0.00 0.00 100 1016.7
20260905190934 68 46 6.1 9.6 0.00 0.00 0.00 100 1016.7
20260905190434 68 42 7.8 10.4 0.00 0.00 0.00 100 1016.7
20260905185934 68 56 7.0 10.4 0.00 0.00 0.00 100 1016.7
20260905185435 69 33 4.3 8.7 0.00 0.00 0.00 100 1016.7
20260905184934 69 40 2.6 8.7 0.00 0.00 0.00 100 1016.7
20260905184434 69 32 3.5 8.7 0.00 0.00 0.00 100 1016.6
20260905183934 69 18 4.3 8.7 0.00 0.00 0.00 100 1016.7
20260905183434 68 20 8.7 9.6 0.00 0.00 0.00 100 1016.8
20260905182934 68 34 6.1 9.6 0.00 0.00 0.00 100 1016.8
20260905182434 69 12 5.2 9.6 0.00 0.00 0.00 100 1016.8
20260905181934 69 22 6.1 9.6 0.00 0.00 0.00 100 1016.7
20260905181434 68 18 4.3 9.6 0.00 0.00 0.00 100 1016.7
20260905180934 69 27 7.0 8.7 0.00 0.00 0.00 100 1016.6
20260905180434 69 42 7.0 9.6 0.00 0.00 0.00 100 1016.6
20260905175934 70 42 7.0 9.6 0.00 0.00 0.00 100 1016.7
20260905175449 70 26 5.2 8.7 0.00 0.00 0.00 100 1016.7
20260905174934 69 31 6.1 8.7 0.00 0.00 0.00 100 1016.7
20260905174434 69 29 4.3 11.3 0.00 0.00 0.00 100 1016.6
20260905173934 70 11 5.2 11.3 0.00 0.00 0.00 100 1016.5
20260905173434 70 41 4.3 9.6 0.00 0.00 0.00 100 1016.5
20260905172934 70 58 6.1 9.6 0.00 0.00 0.00 100 1016.5
20260905172434 69 32 4.3 9.6 0.00 0.00 0.00 100 1016.5
20260905171934 70 22 5.2 8.7 0.00 0.00 0.00 100 1016.6
20260905171449 69 29 6.1 7.8 0.00 0.00 0.00 100 1016.6
20260905170949 69 34 5.2 7.8 0.00 0.00 0.00 100 1016.5
20260905170434 69 27 6.1 10.4 0.00 0.00 0.00 100 1016.5
20260905165934 70 18 3.5 10.4 0.00 0.00 0.00 100 1016.6
20260905165434 71 20 2.6 9.6 0.00 0.00 0.00 100 1016.6
20260905164934 72 15 7.0 9.6 0.00 0.00 0.00 100 1016.6
20260905164434 73 16 7.8 7.8 0.00 0.00 0.00 100 1016.6
20260905163934 73 359 2.6 9.6 0.00 0.00 0.00 100 1016.5
20260905163434 74 351 1.7 9.6 0.00 0.00 0.00 1 1016.7
20260905162934 74 40 5.2 9.6 0.00 0.00 0.00 4 1016.7
20260905162434 73 20 2.6 7.0 0.00 0.00 0.00 100 1016.6
20260905161934 73 24 5.2 7.8 0.00 0.00 0.00 100 1016.6
20260905161434 73 29 5.2 8.7 0.00 0.00 0.00 100 1016.6
20260905160934 72 26 4.3 8.7 0.00 0.00 0.00 100 1016.6
20260905160434 71 20 5.2 9.6 0.00 0.00 0.00 100 1016.5
20260905155934 71 25 5.2 10.4 0.00 0.00 0.00 100 1016.5
20260905155434 71 18 7.0 10.4 0.00 0.00 0.00 100 1016.5
20260905154949 70 22 5.2 7.8 0.00 0.00 0.00 100 1016.4
20260905154434 70 42 3.5 7.8 0.00 0.00 0.00 100 1016.2
20260905153934 70 25 3.5 10.4 0.00 0.00 0.00 100 1016.2
20260905153434 70 353 2.6 10.4 0.00 0.00 0.00 100 1016.2
20260905152934 71 46 8.7 10.4 0.00 0.00 0.00 100 1016.2
20260905152434 71 18 8.7 8.7 0.00 0.00 0.00 100 1016.2
20260905151934 71 34 2.6 7.8 0.00 0.00 0.00 100 1016.2
20260905151434 70 39 7.0 7.8 0.00 0.00 0.00 100 1016.1
20260905150934 70 23 4.3 7.8 0.00 0.00 0.00 100 1016.1
20260905150434 70 27 5.2 9.6 0.00 0.00 0.00 100 1016.1
20260905145934 71 23 6.1 9.6 0.00 0.00 0.00 100 1016.0